Weather History for Maple Lake, MN

Change the Weather History Date:

Thursday, November 8, 2012

  Actual Average (KSTC) Record (KSTC)
Temperature  
Mean Temperature 42 °F 35 °F  
Max Temperature 50 °F 44 °F 75 °F (1999)
Min Temperature 33 °F 26 °F -5 °F (1991)
Degree Days  
Heating Degree Days 24 30  
Month to date heating degree days 225  
Since 1 July heating degree days 1110  
Cooling Degree Days 0 0  
Month to date cooling degree days 0  
Year to date cooling degree days 465  
Moisture  
Dew Point 34 °F    
Average Humidity 82    
Maximum Humidity 98    
Minimum Humidity 60    
Precipitation  
Precipitation 0.00 in 0.05 in 0.96 in (1970)
Month to date precipitation 0.40  
Year to date precipitation 25.93  
Snow  
Snow 0.00 in 0.20 in 6.70 in (1943)
Month to date snowfall 1.3  
Since 1 July snowfall 2.1  
Since 1 September snowfall 2.1  
Snow Depth -    
Sea Level Pressure  
Sea Level Pressure 29.97 in    
Wind  
Wind Speed 7 mph (South)    
Max Wind Speed 12 mph    
Max Gust Speed 17 mph    
Visibility 10 miles    
Events      
T = Trace of Precipitation, MM = Missing Value Source: NWS Daily Summary

Daily Weather History Graph

Daily Weather History Graph

Search for Another Location

Airport:

Trip Planner

Search our weather history database for the weather conditions in past years. The results will help you decide how hot, cold, wet, or windy it might be!

Date:

Astronomy

Nov. 08, 2012 Rise Set
Actual Time 7:05 AM CST 4:53 PM CST
Civil Twilight 6:33 AM CST 5:24 PM CST
Nautical Twilight 5:58 AM CST 6:00 PM CST
Astronomical Twilight 5:24 AM CST 6:34 PM CST
Moon 12:45 AM CST (11/8) 1:49 PM CST (11/8)
Length of Visible Light 10h 51m
Length of Day
9h 48m
Waning Crescent, 32% of the Moon is Illuminated
Nov 8
Waning Crescent
Nov 13
New
Nov 20
First Quarter
Nov 28
Full
Dec 6
Last Quarter

Hourly Weather History & Observations

Time (CST) Temp. Windchill Dew Point Humidity Pressure Visibility Wind Dir Wind Speed Gust Speed Precip Events Conditions
12:14 AM 35.8 °F 30.9 °F 32.0 °F 86% 30.04 in 10.0 mi South 5.8 mph - N/A   Clear
12:35 AM 36.0 °F 29.6 °F 32.0 °F 86% 30.03 in 10.0 mi South 8.1 mph - N/A   Clear
12:54 AM 35.6 °F 29.9 °F 32.0 °F 87% 30.03 in 10.0 mi South 6.9 mph - N/A   Clear
1:14 AM 35.6 °F 29.2 °F 32.0 °F 87% 30.02 in 10.0 mi SSE 8.1 mph - N/A   Clear
1:35 AM 35.2 °F 28.8 °F 32.0 °F 88% 30.01 in 10.0 mi SSE 8.1 mph - N/A   Clear
1:54 AM 35.4 °F 27.8 °F 32.0 °F 87% 30.00 in 10.0 mi SSE 10.4 mph - N/A   Clear
2:14 AM 35.6 °F 28.6 °F 32.0 °F 87% 30.00 in 10.0 mi SSE 9.2 mph - N/A   Clear
2:35 AM 35.6 °F 28.6 °F 32.0 °F 87% 30.00 in 10.0 mi SSE 9.2 mph - N/A   Clear
2:54 AM 35.8 °F 28.8 °F 32.0 °F 86% 29.99 in 10.0 mi SSE 9.2 mph - N/A   Clear
3:15 AM 35.8 °F 29.4 °F 32.0 °F 86% 29.98 in 10.0 mi SSE 8.1 mph 16.1 mph N/A   Clear
3:34 AM 36.0 °F 29.0 °F 32.0 °F 86% 29.97 in 10.0 mi SSE 9.2 mph 17.3 mph N/A   Clear
3:54 AM 35.8 °F 28.3 °F 32.0 °F 86% 29.96 in 10.0 mi SSE 10.4 mph - N/A   Clear
4:15 AM 35.8 °F 27.8 °F 32.0 °F 86% 29.95 in 10.0 mi SSE 11.5 mph 17.3 mph N/A   Clear
4:35 AM 35.2 °F 28.8 °F 32.0 °F 88% 29.95 in 10.0 mi SSE 8.1 mph - N/A   Clear
4:54 AM 35.1 °F 27.9 °F 32.0 °F 89% 29.95 in 10.0 mi SSE 9.2 mph - N/A   Clear
5:14 AM 35.1 °F 27.9 °F 32.0 °F 89% 29.94 in 10.0 mi SSE 9.2 mph - N/A   Clear
5:35 AM 34.7 °F 26.9 °F 32.0 °F 90% 29.93 in 10.0 mi SSE 10.4 mph 16.1 mph N/A   Clear
5:54 AM 34.7 °F 27.5 °F 32.0 °F 90% 29.94 in 10.0 mi SSE 9.2 mph - N/A   Clear
6:14 AM 34.7 °F 27.5 °F 32.0 °F 90% 29.93 in 10.0 mi SSE 9.2 mph - N/A   Clear
6:34 AM 34.9 °F 27.7 °F 32.0 °F 89% 29.92 in 10.0 mi SSE 9.2 mph - N/A   Clear
6:54 AM 35.1 °F 27.4 °F 32.0 °F 89% 29.92 in 10.0 mi SSE 10.4 mph - N/A   Clear
7:14 AM 35.1 °F 28.6 °F 32.0 °F 89% 29.92 in 10.0 mi SSE 8.1 mph - N/A   Clear
7:35 AM 35.4 °F 28.4 °F 32.2 °F 88% 29.93 in 10.0 mi SSE 9.2 mph - N/A   Clear
7:54 AM 36.0 °F 30.3 °F 32.4 °F 87% 29.94 in 10.0 mi South 6.9 mph - N/A   Clear
8:14 AM 36.5 °F 31.8 °F 32.5 °F 86% 29.95 in 10.0 mi SSE 5.8 mph - N/A   Clear
8:34 AM 37.0 °F 33.3 °F 33.1 °F 86% 29.95 in 10.0 mi SSE 4.6 mph - N/A   Clear
8:55 AM 37.2 °F 32.6 °F 33.3 °F 86% 29.94 in 10.0 mi South 5.8 mph - N/A   Clear
9:14 AM 40.1 °F 36.1 °F 34.3 °F 80% 29.94 in 10.0 mi South 5.8 mph - N/A   Clear
9:34 AM 39.9 °F 35.8 °F 34.3 °F 80% 29.94 in 10.0 mi South 5.8 mph - N/A   Clear
9:55 AM 42.4 °F 38.1 °F 35.1 °F 75% 29.94 in 10.0 mi South 6.9 mph - N/A   Clear
10:14 AM 42.3 °F 36.3 °F 35.1 °F 76% 29.94 in 10.0 mi SSW 10.4 mph - N/A   Clear
10:34 AM 44.1 °F 40.1 °F 36.0 °F 73% 29.94 in 10.0 mi SSW 6.9 mph - N/A   Clear
10:55 AM 45.7 °F 41.0 °F 36.5 °F 70% 29.94 in 10.0 mi SW 9.2 mph - N/A   Clear
11:14 AM 46.9 °F - 37.0 °F 68% 29.94 in 10.0 mi SSW 10.4 mph 17.3 mph N/A   Clear
11:34 AM 46.8 °F - 37.0 °F 69% 29.94 in 10.0 mi SSW 10.4 mph - N/A   Clear
11:55 AM 46.9 °F - 36.7 °F 68% 29.92 in 10.0 mi South 8.1 mph 16.1 mph N/A   Clear
12:15 PM 46.8 °F - 36.9 °F 68% 29.92 in 10.0 mi SSW 4.6 mph - N/A   Clear
12:34 PM 46.8 °F - 37.0 °F 69% 29.92 in 10.0 mi SSW 6.9 mph - N/A   Clear
12:54 PM 48.6 °F - 37.6 °F 66% 29.92 in 10.0 mi WSW 5.8 mph - N/A   Clear
1:14 PM 48.6 °F - 37.4 °F 65% 29.92 in 10.0 mi SW 5.8 mph - N/A   Clear
1:35 PM 48.7 °F - 37.6 °F 65% 29.92 in 10.0 mi West 4.6 mph - N/A   Clear
1:54 PM 49.1 °F - 37.8 °F 65% 29.92 in 10.0 mi WSW 3.5 mph - N/A   Clear
2:14 PM 49.1 °F - 36.9 °F 63% 29.93 in 10.0 mi NW 4.6 mph - N/A   Clear
2:35 PM 49.8 °F - 37.2 °F 62% 29.93 in 10.0 mi West 3.5 mph - N/A   Clear
2:55 PM 50.2 °F - 36.9 °F 60% 29.93 in 10.0 mi NNW 4.6 mph - N/A   Clear
3:14 PM 50.2 °F - 36.9 °F 60% 29.94 in 10.0 mi NNW 5.8 mph - N/A   Clear
3:34 PM 50.0 °F - 36.7 °F 60% 29.95 in 10.0 mi NW 5.8 mph - N/A   Clear
3:54 PM 49.6 °F - 36.7 °F 61% 29.95 in 10.0 mi NNW 4.6 mph - N/A   Clear
4:15 PM 48.9 °F - 36.9 °F 63% 29.95 in 10.0 mi Calm Calm - N/A   Clear
4:34 PM 48.2 °F - 36.5 °F 64% 29.95 in 10.0 mi Calm Calm - N/A   Clear
4:54 PM 45.7 °F - 36.1 °F 69% 29.96 in 10.0 mi Calm Calm - N/A   Clear
5:15 PM 44.2 °F - 36.7 °F 75% 29.97 in 10.0 mi Calm Calm - N/A   Clear
5:34 PM 42.1 °F - 36.5 °F 81% 29.97 in 10.0 mi Calm Calm - N/A   Clear
5:54 PM 39.2 °F - 34.9 °F 84% 29.98 in 10.0 mi Calm Calm - N/A   Clear
6:15 PM 37.9 °F - 34.5 °F 87% 29.98 in 10.0 mi Calm Calm - N/A   Clear
6:34 PM 37.9 °F - 35.1 °F 89% 29.99 in 10.0 mi Calm Calm - N/A   Clear
6:54 PM 37.4 °F - 35.6 °F 93% 29.99 in 10.0 mi Calm Calm - N/A   Clear
7:15 PM 34.7 °F - 32.9 °F 93% 30.00 in 10.0 mi Calm Calm - N/A   Clear
7:34 PM 34.5 °F - 33.1 °F 94% 30.00 in 10.0 mi Calm Calm - N/A   Clear
7:55 PM 34.2 °F - 33.3 °F 97% 29.99 in 10.0 mi Calm Calm - N/A   Clear
8:15 PM 33.4 °F 29.1 °F 32.9 °F 98% 29.99 in 7.0 mi North 4.6 mph - N/A   Clear
8:34 PM 35.2 °F 30.3 °F 34.2 °F 96% 30.00 in 10.0 mi North 5.8 mph - N/A   Clear
8:54 PM 38.3 °F 31.9 °F 35.2 °F 89% 30.01 in 10.0 mi North 9.2 mph - N/A   Clear
9:15 PM 37.4 °F 32.8 °F 34.9 °F 91% 30.01 in 10.0 mi North 5.8 mph - N/A   Clear
9:35 PM 37.6 °F 32.3 °F 35.2 °F 91% 30.02 in 10.0 mi NNE 6.9 mph - N/A   Clear
9:54 PM 38.5 °F 32.1 °F 36.0 °F 91% 30.03 in 10.0 mi NNE 9.2 mph - N/A   Clear
10:14 PM 38.3 °F 33.2 °F 36.0 °F 91% 30.02 in 10.0 mi NNE 6.9 mph - N/A   Clear
10:35 PM 37.4 °F 32.8 °F 35.4 °F 93% 30.03 in 10.0 mi NNE 5.8 mph - N/A   Clear
10:54 PM 37.0 °F 33.3 °F 35.2 °F 93% 30.03 in 10.0 mi NNE 4.6 mph - N/A   Clear
11:15 PM 37.0 °F 32.4 °F 35.2 °F 93% 30.03 in 10.0 mi NE 5.8 mph - N/A   Clear
11:34 PM 36.7 °F 32.0 °F 35.1 °F 94% 30.03 in 10.0 mi NNE 5.8 mph - N/A   Clear
11:55 PM 36.5 °F 31.8 °F 34.9 °F 94% 30.04 in 10.0 mi NE 5.8 mph - N/A   Clear